Tracking 20241 objects as of 26-Jan-2020
HD Live streaming from Space Station
objects crossing your sky now

SL-24 R/B

Track SL-24 R/B now!
10-day predictions


NORAD ID: 27610
Int'l Code: 2002-058F
Perigee: 581.4 km
Apogee: 1,028.6 km
Inclination: 64.6 °
Period: 100.8 minutes
Semi major axis: 7176 km
RCS: 7.1875 m2 (large)
Launch date: December 20, 2002
Source: Commonwealth of Independent States (former USSR) (CIS)
Launch site: TYURATAM MISSILE AND SPACE COMPLEX (TTMTR)

Note: This is a ROCKET BODY
aabbcc
Your satellite tracking list
Your tracking list is empty




NASA's NSSDC Master Catalog

Two Line Element Set (TLE):
1 27610U 02058F   20025.56236656 -.00000114 +00000-0 +48179-5 0  9990
2 27610 064.5585 319.4905 0311625 316.0488 224.9843 14.28165998891384
Source of the keplerian elements: AFSPC